Weather in Ponta do Sol

Portugal     32°40′47″N   17°06′18″W
temp.,
°C
wind,
m/s
gust,
m/s
humid.,
%
clouds,
%
prec.,
mm/h
press.,
hPa
HPBL,
m
13 may, thu
thu1301:00+12n118965 0.0 102740
04:00+12n239782 0.0 102584
07:00+12nne239177 0.1 1024319
10:00+16nne22615 0.0 1025529
13:00+19nne224813 0.0 1025866
16:00+19n225213 0.0 1024858
19:00+16ne236425 0.0 1024452
22:00+11nne23855 0.0 102692
14 may, fri
fri1401:00+11nne23750 0.0 102678
04:00+11nne23710 0.0 102458
07:00+11nne22690 0.0 102445
10:00+18nne23440 0.0 1024481
13:00+21nne23420 0.0 1023711
16:00+21nne23390 0.0 1022796
19:00+18nne23460 0.0 1022499
22:00+12nne23660 0.0 102376
15 may, sat
sat1501:00+12n23570 0.0 102360
04:00+11nne23600 0.0 102258
07:00+11nne23560 0.0 102248
10:00+19nne23380 0.0 1021432
13:00+23ne23310 0.0 1021747
16:00+23ne22360 0.0 1020638
19:00+20ne22410 0.0 1020441
22:00+13nne22490 0.0 102250
16 may, sun
sun1601:00+13nne23490 0.0 102255
04:00+13nne22450 0.0 102150
07:00+12nne22700 0.0 102147
10:00+20nne23420 0.0 1021520
13:00+23nne23410 0.0 1022818
16:00+23nne22390 0.0 1021873
19:00+19nne23470 0.0 1022495
22:00+13nne23700 0.0 102463
17 may, mon
mon1701:00+13nne23640 0.0 102457
04:00+12nne22690 0.0 102351
07:00+12ne227925 0.0 102351
10:00+19ne235123 0.0 1024410
13:00+23ne12440 0.0 1024818
16:00+22nne225425 0.0 1023668
19:00+19ne236425 0.0 1023327
22:00+13ne238825 0.0 1025138